Weather in Ivangorod

Russia / Saint-Petersburg and Leningrad Oblast     59°22′35″N   28°13′23″E
temp.,
°C
wind,
m/s
gust,
m/s
humid.,
%
clouds,
%
prec.,
mm/h
press.,
hPa
HPBL,
m
8 august, mon
mon800:00+13s238298 0.0 102156
03:00+13sw2580100 0.1 1021104
06:00+13sw248594 0.2 102191
09:00+17sw347092 0.4 1022451
12:00+19w2460100 0.8 10221163
15:00+18nw3367100 1.3 1022420
18:00+18sw0167100 0.2 1022361
21:00+14se118714 0.9 102315
9 august, tue
tue900:00+12e12934 0.0 102417
03:00+11ese11950 0.0 102521
06:00+11ese11944 0.0 102517
09:00+16e117622 0.0 1026288
12:00+21n22485 0.0 10261425
15:00+20nnw345277 0.0 1026816
18:00+21nnw33455 0.0 1026902
21:00+15ne11734 0.0 102619
10 august, wed
wed1000:00+12se11785 0.0 102614
03:00+11s11815 0.0 102717
06:00+11s228285 0.0 102630
09:00+18sw23594 0.0 1026346
12:00+21w2244100 0.0 10261082
15:00+21nw3344100 0.0 1026984
18:00+20nw235071 0.0 1025403
21:00+15wnw117196 0.0 102521
11 august, thu
thu1100:00+14ssw227295 0.0 102521
03:00+13ssw2278100 0.0 102537
06:00+13ssw248337 0.0 102585
09:00+19sw3558100 0.0 1025390
12:00+23sw354380 0.0 10241155
15:00+25sw464162 0.0 10231633
18:00+24sw374484 0.0 10221689
21:00+19wsw396413 0.0 1022236
12 august, fri
fri1200:00+17wsw411719 0.0 1023308
03:00+16wsw39825 0.0 1023229
06:00+15wsw36860 0.0 1024157
09:00+19wsw35674 0.0 1024402
12:00+23w34515 0.0 1024840
15:00+26w24425 0.0 10231340
18:00+26sw35450 0.0 10221089
21:00+19w22740 0.0 102223